0 HST 1 20580U 90037B 26160.25429042 .00004810 00000-0 15014-3 0 9994 2 20580 28.4711 134.7882 0001992 63.4353 296.6447 15.30659901787355 0 ISS (ZARYA) 1 25544U 98067A 26160.19103139 .00006847 00000-0 12924-3 0 9998 2 25544 51.6332 339.6717 0006890 149.5560 210.5830 15.49678250570515 0 CXO 1 25867U 99040B 26161.44248451 .00000667 00000-0 00000-0 0 9997 2 25867 56.0540 116.8503 7852548 310.2578 0.2529 0.37805334 17299